Location: Vancouver
(49.2500°N, 123.1330°W)
Time: 15:13:22
(UTC-07:00)

AO-27 - Visible Passes

Search period start: 28 September 2016 00:00
Search period end: 08 October 2016 00:00
Orbit: 785 x 798 km, 98.8° (Epoch: 27 September)

Date Brightness Start Highest point End Pass type
(mag) Time Alt. Az. Time Alt. Az. Time Alt. Az.
28 Sep 8.6 03:55:18 10° NNE 04:00:16 43° E 04:01:09 40° SE visible
28 Sep 8.5 05:35:03 10° N 05:39:39 32° WNW 05:41:54 23° WSW visible
29 Sep 9.4 03:26:44 10° NE 03:31:02 25° E 03:31:40 25° ESE visible
29 Sep 7.8 05:05:45 10° N 05:10:49 53° WNW 05:12:25 38° WSW visible
30 Sep 10.1 02:58:47 10° NE 03:01:40 15° E 03:02:11 14° E visible
30 Sep 7.5 04:36:36 10° NNE 04:41:53 88° WNW 04:42:56 58° SSW visible
30 Sep 9.3 06:17:26 10° NNW 06:20:39 17° NW 06:23:41 11° W visible
01 Oct 8.2 04:07:40 10° NNE 04:12:48 54° E 04:13:28 51° SE visible
01 Oct 8.7 05:47:42 10° N 05:52:00 26° WNW 05:54:12 20° W visible
02 Oct 9.1 03:38:58 10° NNE 03:43:37 32° E 03:43:58 31° ESE visible
02 Oct 8.1 05:18:18 10° N 05:23:14 42° WNW 05:24:43 34° WSW visible
03 Oct 9.9 03:10:41 10° NE 03:14:18 19° E 03:14:29 19° E visible
03 Oct 7.6 04:49:06 10° NNE 04:54:20 72° WNW 04:55:15 58° SW visible
03 Oct 9.4 06:30:23 10° NNW 06:32:57 14° NW 06:35:32 10° W visible
04 Oct 10.5 02:44:14 10° ENE 02:44:50 10° E 02:45:00 10° E visible
04 Oct 7.8 04:20:04 10° NNE 04:25:19 68° ESE 04:25:45 65° SE visible
04 Oct 9.0 06:00:25 10° N 06:04:20 22° WNW 06:06:30 17° W visible
05 Oct 8.7 03:51:16 10° NNE 03:56:10 39° E 03:56:16 39° E visible
05 Oct 8.3 05:30:55 10° N 05:35:37 35° WNW 05:37:01 30° W visible
06 Oct 9.6 03:22:46 10° NE 03:26:47 23° E 03:26:47 23° E visible
06 Oct 7.7 05:01:37 10° N 05:06:46 57° WNW 05:07:32 52° WSW visible
06 Oct 9.6 06:43:37 10° NNW 06:45:12 11° NW 06:46:48 10° WNW visible
07 Oct 10.3 02:55:01 10° ENE 02:57:18 13° E 02:57:18 13° E visible
07 Oct 7.6 04:32:31 10° NNE 04:37:48 85° ESE 04:38:03 81° SSE visible
07 Oct 9.2 06:13:11 10° NNW 06:16:39 18° NW 06:18:47 14° W visible
